Location: Buchdorf
(48.7842°N, 10.8275°E)
Time: 23:06:08
(UTC+00:00)

Cosmos 2237 Rocket - Pass Details

Date: 09 April 2020
Orbit: 833 x 851 km, 71.0° (Epoch: 29 May)

Event Time Altitude Azimuth Distance (km) Brightness Sun altitude
Rises 23:35:59 0° 335° (NNW) 3,410 6.2 -33.0°
Reaches altitude 10° 23:38:49 10° 347° (NNW) 2,475 5.4 -33.0°
Maximum altitude 23:43:39 28° 46° (NE) 1,551 3.9 -32.9°
Enters shadow 23:45:40 23° 79° (ENE) 1,749 3.9 -32.9°
